TimeCDT,TemperatureF,Dew PointF,Humidity,Sea Level PressureIn,VisibilityMPH,Wind Direction,Wind SpeedMPH,Gust SpeedMPH,PrecipitationIn,Events,Conditions,WindDirDegrees,DateUTC
12:34 AM,33.8,24.8,70,30.32,10.0,WSW,6.9,-,N/A,,Clear,250,2012-10-12 05:34:00
12:53 AM,32.0,24.8,75,30.32,10.0,WSW,5.8,-,N/A,,Clear,240,2012-10-12 05:53:00
1:13 AM,32.0,23.0,69,30.32,10.0,WSW,5.8,-,N/A,,Clear,240,2012-10-12 06:13:00
1:33 AM,32.0,24.8,75,30.32,10.0,SW,5.8,-,N/A,,Clear,230,2012-10-12 06:33:00
1:53 AM,32.0,24.8,75,30.33,10.0,SW,6.9,-,N/A,,Clear,230,2012-10-12 06:53:00
2:13 AM,32.0,24.8,75,30.32,10.0,WSW,12.7,-,N/A,,Clear,240,2012-10-12 07:13:00
2:34 AM,30.2,24.8,80,30.33,10.0,SW,11.5,-,N/A,,Clear,230,2012-10-12 07:34:00
2:53 AM,30.2,24.8,80,30.33,10.0,SW,10.4,-,N/A,,Clear,230,2012-10-12 07:53:00
3:14 AM,32.0,26.6,80,30.32,10.0,SW,11.5,-,N/A,,Clear,230,2012-10-12 08:14:00
3:54 AM,32.0,26.6,80,30.31,10.0,SW,8.1,-,N/A,,Clear,220,2012-10-12 08:54:00
4:13 AM,32.0,26.6,80,30.31,10.0,SW,10.4,-,N/A,,Clear,220,2012-10-12 09:13:00
4:34 AM,32.0,28.4,87,30.30,10.0,SW,11.5,-,N/A,,Clear,220,2012-10-12 09:34:00
5:13 AM,33.8,28.4,81,30.31,10.0,SW,13.8,-,N/A,,Clear,230,2012-10-12 10:13:00
5:34 AM,33.8,26.6,75,30.30,10.0,SW,13.8,-,N/A,,Clear,220,2012-10-12 10:34:00
5:53 AM,33.8,26.6,75,30.31,10.0,SW,12.7,-,N/A,,Clear,230,2012-10-12 10:53:00
6:14 AM,32.0,26.6,80,30.30,10.0,SW,10.4,-,N/A,,Clear,220,2012-10-12 11:14:00
6:33 AM,33.8,26.6,75,30.30,10.0,SSW,10.4,-,N/A,,Clear,210,2012-10-12 11:33:00
6:53 AM,33.8,28.4,81,30.30,10.0,SSW,9.2,-,N/A,,Clear,210,2012-10-12 11:53:00
7:13 AM,33.8,26.6,75,30.29,10.0,SSW,9.2,-,N/A,,Clear,210,2012-10-12 12:13:00
7:34 AM,33.8,28.4,81,30.28,10.0,SSW,10.4,-,N/A,,Clear,200,2012-10-12 12:34:00
7:53 AM,35.6,26.6,70,30.28,10.0,SSW,12.7,-,N/A,,Clear,200,2012-10-12 12:53:00
8:14 AM,35.6,26.6,70,30.28,10.0,SSW,12.7,-,N/A,,Clear,210,2012-10-12 13:14:00
8:33 AM,35.6,26.6,70,30.28,10.0,SSW,12.7,-,N/A,,Clear,200,2012-10-12 13:33:00
9:13 AM,37.4,28.4,70,30.27,10.0,SSW,11.5,-,N/A,,Clear,200,2012-10-12 14:13:00
9:33 AM,37.4,28.4,70,30.26,10.0,SSW,13.8,-,N/A,,Clear,200,2012-10-12 14:33:00
9:54 AM,37.4,28.4,70,30.25,10.0,SSW,16.1,-,N/A,,Clear,200,2012-10-12 14:54:00
10:13 AM,37.4,26.6,65,30.25,10.0,SSW,20.7,24.2,N/A,,Clear,200,2012-10-12 15:13:00
10:33 AM,37.4,26.6,65,30.24,10.0,SSW,18.4,25.3,N/A,,Clear,200,2012-10-12 15:33:00
10:54 AM,37.4,26.6,65,30.23,10.0,South,18.4,24.2,N/A,,Clear,190,2012-10-12 15:54:00
11:13 AM,37.4,26.6,65,30.22,10.0,South,19.6,24.2,N/A,,Clear,190,2012-10-12 16:13:00
11:33 AM,37.4,26.6,65,30.21,10.0,South,17.3,-,N/A,,Clear,190,2012-10-12 16:33:00
12:14 PM,39.2,28.4,65,30.19,10.0,South,15.0,25.3,N/A,,Scattered Clouds,190,2012-10-12 17:14:00
12:33 PM,39.2,28.4,65,30.18,10.0,South,18.4,23.0,N/A,,Overcast,190,2012-10-12 17:33:00
12:54 PM,39.2,26.6,61,30.17,10.0,South,17.3,-,N/A,,Overcast,190,2012-10-12 17:54:00
1:33 PM,39.2,26.6,61,30.15,10.0,South,19.6,23.0,N/A,,Overcast,180,2012-10-12 18:33:00
2:54 PM,41.0,28.4,61,30.08,10.0,South,24.2,29.9,N/A,,Overcast,170,2012-10-12 19:54:00
3:33 PM,42.8,28.4,57,30.06,10.0,South,25.3,-,N/A,,Overcast,170,2012-10-12 20:33:00
3:54 PM,42.8,28.4,57,30.05,10.0,South,26.5,29.9,N/A,,Overcast,170,2012-10-12 20:54:00
4:14 PM,42.8,28.4,57,30.03,10.0,South,26.5,-,N/A,,Overcast,170,2012-10-12 21:14:00
4:33 PM,42.8,28.4,57,30.03,10.0,South,24.2,-,N/A,,Overcast,170,2012-10-12 21:33:00
4:53 PM,42.8,28.4,57,30.01,10.0,South,26.5,32.2,N/A,,Overcast,170,2012-10-12 21:53:00
5:14 PM,42.8,30.2,61,30.00,10.0,South,24.2,32.2,N/A,,Overcast,170,2012-10-12 22:14:00
5:33 PM,42.8,28.4,57,29.98,10.0,SSE,27.6,-,N/A,,Overcast,160,2012-10-12 22:33:00
5:54 PM,42.8,28.4,57,29.97,10.0,South,28.8,-,N/A,,Mostly Cloudy,170,2012-10-12 22:54:00
6:14 PM,42.8,28.4,57,29.96,10.0,South,29.9,33.4,N/A,,Scattered Clouds,170,2012-10-12 23:14:00
6:33 PM,42.8,28.4,57,29.95,10.0,South,25.3,-,N/A,,Scattered Clouds,170,2012-10-12 23:33:00
6:53 PM,42.8,26.6,53,29.95,10.0,SSE,27.6,-,N/A,,Scattered Clouds,160,2012-10-12 23:53:00
7:14 PM,42.8,28.4,57,29.94,10.0,South,26.5,-,N/A,,Scattered Clouds,170,2012-10-13 00:14:00
7:53 PM,42.8,30.2,61,29.95,10.0,SSE,25.3,-,N/A,,Clear,160,2012-10-13 00:53:00
8:14 PM,42.8,28.4,57,29.94,10.0,South,25.3,-,N/A,,Clear,170,2012-10-13 01:14:00
8:33 PM,42.8,30.2,61,29.93,10.0,South,25.3,-,N/A,,Clear,170,2012-10-13 01:33:00
8:53 PM,42.8,30.2,61,29.93,10.0,South,24.2,-,N/A,,Clear,170,2012-10-13 01:53:00
9:14 PM,42.8,30.2,61,29.93,10.0,South,23.0,-,N/A,,Clear,170,2012-10-13 02:14:00
9:33 PM,42.8,30.2,61,29.92,10.0,SSE,21.9,-,N/A,,Clear,160,2012-10-13 02:33:00
10:13 PM,42.8,30.2,61,29.89,10.0,SSE,21.9,-,N/A,,Clear,150,2012-10-13 03:13:00
10:54 PM,42.8,30.2,61,29.87,10.0,SSE,21.9,-,N/A,,Clear,150,2012-10-13 03:54:00
11:13 PM,42.8,28.4,57,29.88,10.0,SSE,20.7,-,N/A,,Clear,150,2012-10-13 04:13:00
11:33 PM,42.8,28.4,57,29.87,10.0,SSE,19.6,26.5,N/A,,Clear,150,2012-10-13 04:33:00